Resolute

Airport
ICAO code: 
CYRB
Summary
ICAO Region: 
NAM
Territory: 
Location: 
Resolute, Nunavut,
Coordinates: 
Aerial View: 
74° 43' 0.998" N, 94° 58' 9.998" W
Airport BS: 
Non Avian Wildlife Hazards to Aircraft
Airport CFIT: 
Altimeter Temperature Error Correction
Airport GND: 
Aircraft Ground De/Anti Icing
Airport WX: 
Fog
Metar
Observation
CYRB 042300Z 02022KT 9SM -SN DRSN OVC056 M24/M28 A2942 RMK SC8 SLP977
Station
Resolute, N. W. T.
Date/Time
2021-12-04 23:00:00
Wind direction
20°
Wind speed
22 kts
Lowest cloud amount
overcast
Temperature
-24°C
Dew point
-28°C
Humidity
69%
Weather condition
light drifting

Description

Airport serving Resolute, Nunavut.

Climatology

Tundra climate (Köppen climate classification ET) - warmest month has an average temperature of 0 - 10 degrees C.

Runways

Designator Length Width Surface Rops
17T/35T 1981 61 GVL No/No
Airport map: 
Aerial View: 

Accidents and Serious Incidents at or in the vicinity of CYRB

SKYbrary Partners:

Safety knowledge contributed by: